Regional Weather Roundup
Issued by NWS Green Bay, WI

Home | Current Version | Previous Version | Text Only | Print | Product List | Glossary On
Versions: 1 2 3 4 5 6 7 8 9 10 11 12 13 14 15 16 17 18 19 20 21 22 23 24 25 26 27 28 29 30 31 32 33 34 35 36 37 38 39 40 41 42 43 44 45 46 47 48 49 50
000
ASUS43 KGRB 232011
RWRGRB

NORTH-CENTRAL AND NORTHEAST WISCONSIN REGIONAL WEATHER ROUNDUP
NATIONAL WEATHER SERVICE GREEN BAY WI
300 PM CDT SUN APR 23 2017

WIZ005-009-010>012-018-019-232100-
NORTH CENTRAL WISCONSIN

CITY           SKY/WX    TMP DP  RH WIND       PRES   REMARKS
IRONWOOD       CLOUDY    38  31  76 N3        30.14F
MANITOWISH WTR CLOUDY    40  37  89 E10       30.11F
ARBOR VITAE    CLOUDY    42  35  76 NE5       30.10F
EAGLE RIVER    CLOUDY    39  31  73 NE6       30.10F
LAND O LAKES   CLOUDY    38  33  84 E6        30.14F
RHINELANDER    MOSUNNY   49  37  63 E8        30.09F
PHILLIPS       MOSUNNY   49  37  65 E6        30.06F
ANTIGO         PTSUNNY   53  39  57 E6        30.07F
TOMAHAWK       SUNNY     54  37  52 NE8       30.06F
MERRILL        SUNNY     56  41  57 NE5       30.06F
$$

WIZ013-073-232100-
NORTHEAST WISCONSIN

CITY           SKY/WX    TMP DP  RH WIND       PRES   REMARKS
IRON MOUNTAIN  LGT RAIN  41  27  57 N7        30.13F
MARINETTE      MOSUNNY   42  32  67 E17G24    30.16S
OCONTO         SUNNY     45  33  63 E13G21    30.13S
$$

WIZ017-030-035>037-045-232100-
CENTRAL WISCONSIN

CITY           SKY/WX    TMP DP  RH WIND       PRES   REMARKS
MEDFORD        HAZE      59  43  54 E7        30.02F VSB 3/4
WAUSAU         MOSUNNY   62  43  49 E8        30.02F
MOSINEE        PTSUNNY   64  39  39 W12       30.04S
MARSHFIELD     SUNNY     66  38  35 W6        30.01F
WISC RAPIDS    MOSUNNY   71  37  28 VRB5G20   30.02F
STEVENS POINT  SUNNY     65  37  34 NW8       30.03S
WAUPACA        SUNNY     62  43  48 E12       30.06S
SHAWANO        SUNNY     57  42  57 E13       30.09S
CLINTONVILLE   SUNNY     55  39  54 E13       30.08R
WAUTOMA        PTSUNNY   65  45  48 NE17G23   30.03R
$$

WIZ038-039-048-051-232100-
FOX VALLEY

CITY           SKY/WX    TMP DP  RH WIND       PRES   REMARKS
NWS GREEN BAY  SUNNY     51  40  65 NE21      30.10F
APPLETON       MOSUNNY   55  39  54 NE15G21   30.06S
OSHKOSH        SUNNY     55  42  61 E13       30.06S
FOND DU LAC    SUNNY     59  42  53 E12       30.06R
$$

WIZ022-050-052-232100-
EAST CENTRAL WISCONSIN

CITY           SKY/WX    TMP DP  RH WIND       PRES   REMARKS
EPHRAIM        FAIR      41  32  71 N12G17    30.15S
WASHINGTON ISL CLOUDY    38  28  67 NE13G18   30.16F
STURGEON BAY   PTSUNNY   45  34  65 NE12      30.14S
MANITOWOC      SUNNY     45  36  70 NE12      30.12S
SHEBOYGAN      SUNNY     47  38  71 NE21      30.10F
$$

LMZ563-521-522-541>543-232100-
LAKESHORE

STATION/POSITION TIME  TEMP    WIND        PRES    VSBY  WAVE
                       AIR SEA DIR/SP/G                  HT/PER
                 (UTC) (F)     (DEG/KT/KT) (MB)    (MI)  (FT/S)
SHEBOYGAN LKSHOR 2000   39      30/ 19/ 20 1019.9F
KEWAUNEE LKSHORE 1948   40      50/ 13/ 19 1019.9S
NORTHPORT PIER   1940   39      10/ 10/ 14 1021.3F
N MID LAKE BUOY  1950   37 37   30/ 12/ 16 1022.6F         2/ 4
CHAMBERS ISLAND  1940   37      30/ 12/ 17 1021.0S
MENOMINEE LKSHOR 1948   38      30/ 19/ 22 1020.3F
$$



USA.gov is the U.S. government's official web portal to all federal, state and local government web resources and services.